一网星座-0710星 (ONEWEB-0710)

导读 | 豆包AI

ONEWEB-0710是英国OneWeb低轨卫星互联网星座中的一颗卫星,于2023年1月10日发射升空。OneWeb由英国政府参股,致力于构建全球覆盖的低轨高速通信网络,为偏远地区、基础设施薄弱区域提供稳定互联网接入服务。该卫星星座建设历经波折,在资产重组后借助SpaceX等完成第一代星座组网,ONEWEB-0710为全球无缝宽带通信的实现提供了重要支撑,推动卫星互联网的全球覆盖进程。

基本信息
目录编号:
55173
目录名称:
ONEWEB-0710
国际标识:
2023-004AK
轨道中心:
EARTH
卫星名称:
一网星座-0710星
卫星全名:
一网星座-0710星 (ONEWEB-0710)
卫星状态:
在轨 (已飞行1159 天)
发射日期:
2023-01-10 UTC
国别 :
英国 (GB)
星等 :
--
轨道信息
数据来源 国际轨道数据
星历时间: 2026-03-14T05:41:36+0800
17小时前
查看轨道信息
半长轴: 7571.853km
偏心率: 0.0001836
轨道倾角: 87.916°
近地点辐角 75.380°
升交点赤经 24.788°
平近点角 284.754°
近地点: 1192.325km
远地点: 1195.107km
周期: 109.286分钟
每日圈数: 13.176484
详细信息
平衡模式:
三轴稳定
覆盖范围:
全球
运营商:
一网卫星公司
运营商所在国:
英国
制造商(研发单位):
一网卫星公司
制造商所在国:
英国
使用方式:
暂无
卫星简介
OneWeb卫星网络由648颗重约125公斤的微型卫星组成,运行在1200公里的轨道上。 每颗卫星都能够提供至少每秒8千兆位的吞吐量,以使用其高吞吐量的Ku频段有效载荷为家庭和移动平台提供互联网接入。该卫星仍在工作。
2D轨道图
3D轨道图
轨道高度分析图
轨道倾角分析图
轨道综合分析图
查看轨道综合分析图